Satellite-Ground Cal/Val Region Overpasses Predictions

Prediction of Satellite NPP Overpassing Cal/Val Region: PacNW

Region Location: (Latitude: 10.00, Longitude: 139.50) to (Latitude: 22.70, Longitude: 165.60).

Table of predicted overpasses for the next 14.0 days since TLE Epoch: 3/20/2021
Interval Starting Time Starting Location Ending Time Ending Location
1 03/21/2021 02:45:09 ( 10.04, 158.31) 03/21/2021 02:48:44 ( 22.66, 155.31)
2 03/21/2021 15:17:01 ( 22.68, 155.55) 03/21/2021 15:20:36 ( 10.05, 152.55)
3 03/22/2021 02:26:06 ( 10.02, 163.08) 03/22/2021 02:29:42 ( 22.70, 160.06)
4 03/22/2021 14:57:59 ( 22.69, 160.32) 03/22/2021 15:01:35 ( 10.01, 157.30)
5 03/23/2021 02:09:47 ( 19.57, 165.59) 03/23/2021 02:10:40 ( 22.68, 164.82)
6 03/23/2021 03:48:34 ( 10.01, 142.47) 03/23/2021 03:52:06 ( 22.45, 139.51)
7 03/23/2021 14:38:57 ( 22.65, 165.07) 03/23/2021 14:42:32 ( 10.03, 162.06)
8 03/23/2021 16:20:27 ( 22.65, 139.69) 03/23/2021 16:20:39 ( 21.94, 139.51)
9 03/24/2021 03:29:32 ( 10.05, 147.21) 03/24/2021 03:33:07 ( 22.67, 144.21)
10 03/24/2021 16:01:25 ( 22.66, 144.45) 03/24/2021 16:05:00 ( 10.04, 141.45)
11 03/25/2021 03:10:30 ( 10.03, 151.98) 03/25/2021 03:14:05 ( 22.65, 148.98)
12 03/25/2021 15:42:22 ( 22.68, 149.22) 03/25/2021 15:45:57 ( 10.06, 146.21)
13 03/26/2021 02:51:27 ( 10.01, 156.74) 03/26/2021 02:55:03 ( 22.69, 153.72)
14 03/26/2021 15:23:20 ( 22.70, 153.98) 03/26/2021 15:26:56 ( 10.02, 150.96)
15 03/27/2021 02:32:26 ( 10.05, 161.49) 03/27/2021 02:36:01 ( 22.68, 158.49)
16 03/27/2021 15:04:19 ( 22.65, 158.73) 03/27/2021 15:07:54 ( 10.03, 155.73)
17 03/28/2021 02:14:12 ( 12.92, 165.59) 03/28/2021 02:16:58 ( 22.66, 163.25)
18 03/28/2021 03:54:53 ( 10.05, 140.88) 03/28/2021 03:56:34 ( 15.98, 139.50)
19 03/28/2021 14:45:16 ( 22.67, 163.49) 03/28/2021 14:48:51 ( 10.05, 160.49)
20 03/29/2021 03:35:51 ( 10.03, 145.64) 03/29/2021 03:39:26 ( 22.65, 142.64)
21 03/29/2021 14:29:24 ( 11.53, 165.59) 03/29/2021 14:29:50 ( 10.01, 165.24)
22 03/29/2021 16:07:44 ( 22.68, 142.88) 03/29/2021 16:11:19 ( 10.06, 139.87)
23 03/30/2021 03:16:48 ( 10.01, 150.40) 03/30/2021 03:20:24 ( 22.69, 147.39)
24 03/30/2021 15:48:41 ( 22.69, 147.64) 03/30/2021 15:52:17 ( 10.01, 144.62)
25 03/31/2021 02:57:47 ( 10.06, 155.15) 03/31/2021 03:01:22 ( 22.68, 152.15)
26 03/31/2021 15:29:40 ( 22.65, 152.39) 03/31/2021 15:33:15 ( 10.03, 149.39)
27 04/01/2021 02:38:44 ( 10.04, 159.91) 04/01/2021 02:42:19 ( 22.66, 156.91)
28 04/01/2021 15:10:37 ( 22.67, 157.15) 04/01/2021 15:14:12 ( 10.04, 154.15)
29 04/02/2021 02:19:42 ( 10.03, 164.68) 04/02/2021 02:23:17 ( 22.65, 161.67)
30 04/02/2021 14:51:35 ( 22.68, 161.91) 04/02/2021 14:55:11 ( 10.00, 158.90)
31 04/03/2021 03:42:10 ( 10.02, 144.06) 04/03/2021 03:45:45 ( 22.64, 141.06)
32 04/03/2021 14:33:47 ( 18.30, 165.60) 04/03/2021 14:36:08 ( 10.02, 163.66)
